DECAYED

STARLINK-2018, 47640 (Decayed)

Orbit data source: Space-Track

STARLINK-2018, 47640 was a payload satellite owned by SpaceX/Seattle (US) in LEO that was launched on Tue, 16 Feb 2021 UTC via an FALCON 9 launch vehicle from the Air Force Eastern Test Range (AFETR). Payload-class satellites include a variety of spacecraft equipped with specific instruments for various scientific and technological missions. These include communications satellites like Starlink; space stations such as the ISS; scientific satellites like the Hubble; Earth observation satellites from companies like Planet Labs, Umbra, and HawkEye 360; GPS; miniature CubeSats for education and research; and military/defense satellites.

Not visible in the next 10 days
Identifier
47640, 2021-012W
Orbit
Decayed
Country
Flag of USUS
Related business
Manufacturer
SpaceX/Seattle
Mission
Decayed Commercial Communications
Bus & Motor
STARLINK, Unknown motor
Mass
260 kg wet, ~248 kg dry
Launch date (UTC)
2021-02-16 (5 years ago)
Launch vehicle
FALCON 9
Launch site
Air Force Eastern Test Range (AFETR)
Object type
Payload
Rocket body
Debris
Shape & HBR
Box + 1 Pan, 10.1 m
Radar Cross Section
13.562 m², Large (>1 m²)

Expand to show TLE details & history
Last TLE update: 10 months ago

TLE from 10 months ago
0 STARLINK-2018
1 47640U 21012W   25040.98184052  .20773023  12505-4  43360-3 0  9995
2 47640  53.0245 356.5883 0003209 209.6514 266.4675 16.46830535220653
Epoch: 2025-02-09T23:33Z
TLE epoch observation values (Epoch: 2025-02-09T23:33:51.020Z)
Latitude
46.0014°
Longitude
-8.00278°
Altitude
152.681 km
Speed
7.82 km/s
True Right ascension
08h 23m 04s
True Declination
45° 48' 49"
Sunlit
Object was in full shadow at epoch
Visualization orbit readout
Latitude
Unknown
Longitude
Unknown
Altitude
Unknown
Speed
Unknown
Apparent Right ascension
Unknown
Apparent Declination
Unknown
Sunlit
N/A
Visualization observer readout
Local Sidereal Time
11:56:08
Azimuth
Unknown
Elevation
Unknown
Doppler factor
Unknown
Orbital elements
Apogee altitude
150.081 km
Perigee altitude
145.893 km
Semi-major axis
6,526.124 km
Eccentricity
0.00032
Inclination
53.0245°
RAAN
356.5883°
Arg. of periapsis
209.6514°
True anomaly
266.4308°
Mean anomaly
266.4675°
Eccentric anomaly
266.44915°
Mean motion
4.1168 °/min
Orbital period
87.45 mins
BSTAR
0.0004336
Loading maneuver chart data...
Computing Atmospheric mass density...
Loading historical data...
Loading historical data...
Loading historical data...
Loading historical data...
Loading historical data...
Loading historical data...
Loading historical data...

Documentation

Showing up to 5 results
|